Showing default

INTELSAT 32E, 41945

Orbit data source: Space-Track

INTELSAT 32E, 41945 is an American payload satellite in GEO that was launched on Tue, 14 Feb 2017 UTC via an ARIANE 5ECA launch vehicle from the French Guiana (FRGUI). Payload-class satellites include a variety of spacecraft equipped with specific instruments for various scientific and technological missions. These include communications satellites like Starlink; space stations such as the ISS; scientific satellites like the Hubble; Earth observation satellites from companies like Planet Labs, Umbra, and HawkEye 360; GPS; miniature CubeSats for education and research; and military/defense satellites.

Loading next visibility...
Identifier
41945, 2017-007B
Orbit
GEO
Country
Flag of UnknownUnknown / ITSO
Related business
Manufacturer
Airbus/Toulouse
Mission
Operational Commercial Communications
Bus & Motor
EUROSTAR 3000X, R-4D?
Mass
~6,300 kg wet, ~3,000 kg dry
Launch date (UTC)
2017-02-14 (9 years ago)
Launch vehicle
ARIANE 5ECA
Launch site
French Guiana (FRGUI)
Object type
Payload
Rocket body
Debris
Shape & HBR
Box + 2 Pan, 19.5 m
Radar Cross Section
46.485 m², Large (>1 m²)

Expand to show TLE details & history
Last TLE update: 10 hours ago

TLE from 10 hours ago
0 INTELSAT 32E
1 41945U 17007B   26035.32165457 -.00000275  00000-0  00000+0 0  9991
2 41945   0.0154  90.1541 0000802 275.7926 201.1242  1.00269300 32898
Epoch: 2026-02-04T07:43Z
TLE epoch observation values (Epoch: 2026-02-04T07:43:10.954Z)
Latitude
0.03502°
Longitude
-43.18152°
Altitude
35,789.922 km
Speed
3.074 km/s
True Right ascension
13h 48m 24s
True Declination
0° 02' 06"
Sunlit
Object was in daylight at epoch
Visualization orbit readout
Latitude
Unknown
Longitude
Unknown
Altitude
Unknown
Speed
Unknown
Apparent Right ascension
Unknown
Apparent Declination
Unknown
Sunlit
N/A
Visualization observer readout
Local Sidereal Time
19:15:28
Azimuth
Unknown
Elevation
Unknown
Doppler factor
Unknown
Orbital elements
Apogee altitude
35,791.744 km
Perigee altitude
35,784.98 km
Semi-major axis
42,166.499 km
Eccentricity
0.00008
Inclination
0.0154°
RAAN
90.1541°
Arg. of periapsis
275.7926°
True anomaly
201.12089°
Mean anomaly
201.1242°
Eccentric anomaly
201.12254°
Mean motion
0.25066 °/min
Orbital period
1,436.19 mins
BSTAR
0
Loading maneuver chart data...
Computing Atmospheric mass density...
Loading historical data...
Loading historical data...
Loading historical data...
Loading historical data...
Loading historical data...
Loading historical data...
Loading historical data...
Other satellites on launch #7 in the year 2017 (2017-02-14 UTC)

Documentation

Showing up to 5 results
|